<?xml version="1.0" encoding="UTF-8" standalone="no" ?>
<gpx xmlns="http://www.topografix.com/GPX/1/1" xmlns:xsi="http://www.w3.org/2001/XMLSchema-instance" xsi:schemaLocation="http://www.topografix.com/GPX/1/1 http://www.topografix.com/GPX/1/1/gpx.xsd" version="1.1" creator="VisuGPX - https://www.visugpx.com">
  <metadata>
    <name>ESCAPADE-Pilat-Etape3-Boucles1, 2, 3, 4</name>
  </metadata>
  <trk>
    <name><![CDATA[Echappée équestre du crêt du pilat]]></name>
    <extensions>
      <line xmlns="http://www.topografix.com/GPX/gpx_style/0/2">
        <color>0000FF</color>
        <width>4</width>
      </line>
    </extensions>
    <trkseg>
      <trkpt lat="45.39086" lon="4.48093">
        <ele>1045</ele>
        <time>2021-06-09T16:56:21+02:00</time>
      </trkpt>
      <trkpt lat="45.39008" lon="4.48189">
        <ele>1039</ele>
        <time>2021-06-09T16:56:26+02:00</time>
      </trkpt>
      <trkpt lat="45.38942" lon="4.48273">
        <ele>1037</ele>
        <time>2021-06-09T16:56:31+02:00</time>
      </trkpt>
      <trkpt lat="45.38869" lon="4.48363">
        <ele>1041</ele>
        <time>2021-06-09T16:56:36+02:00</time>
      </trkpt>
      <trkpt lat="45.38844" lon="4.4839">
        <ele>1043</ele>
        <time>2021-06-09T16:56:41+02:00</time>
      </trkpt>
      <trkpt lat="45.38826" lon="4.48384">
        <ele>1045</ele>
        <time>2021-06-09T16:56:46+02:00</time>
      </trkpt>
      <trkpt lat="45.38687" lon="4.48495">
        <ele>1069</ele>
        <time>2021-06-09T16:56:51+02:00</time>
      </trkpt>
      <trkpt lat="45.38583" lon="4.48616">
        <ele>1093</ele>
        <time>2021-06-09T16:56:56+02:00</time>
      </trkpt>
      <trkpt lat="45.38503" lon="4.48735">
        <ele>1088</ele>
        <time>2021-06-09T16:57:01+02:00</time>
      </trkpt>
      <trkpt lat="45.38456" lon="4.4882">
        <ele>1086</ele>
        <time>2021-06-09T16:57:06+02:00</time>
      </trkpt>
      <trkpt lat="45.38385" lon="4.48919">
        <ele>1089</ele>
        <time>2021-06-09T16:57:11+02:00</time>
      </trkpt>
      <trkpt lat="45.38347" lon="4.48967">
        <ele>1088</ele>
        <time>2021-06-09T16:57:16+02:00</time>
      </trkpt>
      <trkpt lat="45.38304" lon="4.49007">
        <ele>1088</ele>
        <time>2021-06-09T16:57:21+02:00</time>
      </trkpt>
      <trkpt lat="45.38206" lon="4.49086">
        <ele>1093</ele>
        <time>2021-06-09T16:57:26+02:00</time>
      </trkpt>
      <trkpt lat="45.38129" lon="4.4914">
        <ele>1100</ele>
        <time>2021-06-09T16:57:31+02:00</time>
      </trkpt>
      <trkpt lat="45.38116" lon="4.49131">
        <ele>1100</ele>
        <time>2021-06-09T16:57:36+02:00</time>
      </trkpt>
      <trkpt lat="45.38052" lon="4.49178">
        <ele>1103</ele>
        <time>2021-06-09T16:57:41+02:00</time>
      </trkpt>
      <trkpt lat="45.37991" lon="4.49217">
        <ele>1107</ele>
        <time>2021-06-09T16:57:46+02:00</time>
      </trkpt>
      <trkpt lat="45.37927" lon="4.4928">
        <ele>1115</ele>
        <time>2021-06-09T16:57:51+02:00</time>
      </trkpt>
      <trkpt lat="45.37884" lon="4.49361">
        <ele>1120</ele>
        <time>2021-06-09T16:57:56+02:00</time>
      </trkpt>
      <trkpt lat="45.37815" lon="4.49467">
        <ele>1128</ele>
        <time>2021-06-09T16:58:01+02:00</time>
      </trkpt>
      <trkpt lat="45.37748" lon="4.49549">
        <ele>1132</ele>
        <time>2021-06-09T16:58:06+02:00</time>
      </trkpt>
      <trkpt lat="45.37717" lon="4.49603">
        <ele>1135</ele>
        <time>2021-06-09T16:58:11+02:00</time>
      </trkpt>
      <trkpt lat="45.37735" lon="4.49652">
        <ele>1133</ele>
        <time>2021-06-09T16:58:16+02:00</time>
      </trkpt>
      <trkpt lat="45.3774" lon="4.49701">
        <ele>1131</ele>
        <time>2021-06-09T16:58:21+02:00</time>
      </trkpt>
      <trkpt lat="45.3774" lon="4.49827">
        <ele>1132</ele>
        <time>2021-06-09T16:58:26+02:00</time>
      </trkpt>
      <trkpt lat="45.37756" lon="4.49856">
        <ele>1131</ele>
        <time>2021-06-09T16:58:31+02:00</time>
      </trkpt>
      <trkpt lat="45.3781" lon="4.49855">
        <ele>1122</ele>
        <time>2021-06-09T16:58:36+02:00</time>
      </trkpt>
      <trkpt lat="45.37861" lon="4.49861">
        <ele>1115</ele>
        <time>2021-06-09T16:58:41+02:00</time>
      </trkpt>
      <trkpt lat="45.37968" lon="4.49861">
        <ele>1101</ele>
        <time>2021-06-09T16:58:46+02:00</time>
      </trkpt>
      <trkpt lat="45.38031" lon="4.4988">
        <ele>1095</ele>
        <time>2021-06-09T16:58:51+02:00</time>
      </trkpt>
      <trkpt lat="45.38087" lon="4.4992">
        <ele>1089</ele>
        <time>2021-06-09T16:58:56+02:00</time>
      </trkpt>
      <trkpt lat="45.3809" lon="4.50039">
        <ele>1085</ele>
        <time>2021-06-09T16:59:01+02:00</time>
      </trkpt>
      <trkpt lat="45.38064" lon="4.50175">
        <ele>1073</ele>
        <time>2021-06-09T16:59:06+02:00</time>
      </trkpt>
      <trkpt lat="45.38017" lon="4.5026">
        <ele>1058</ele>
        <time>2021-06-09T16:59:11+02:00</time>
      </trkpt>
      <trkpt lat="45.37969" lon="4.50311">
        <ele>1048</ele>
        <time>2021-06-09T16:59:16+02:00</time>
      </trkpt>
      <trkpt lat="45.37911" lon="4.50367">
        <ele>1047</ele>
        <time>2021-06-09T16:59:21+02:00</time>
      </trkpt>
      <trkpt lat="45.37906" lon="4.50386">
        <ele>1046</ele>
        <time>2021-06-09T16:59:26+02:00</time>
      </trkpt>
      <trkpt lat="45.37947" lon="4.50453">
        <ele>1035</ele>
        <time>2021-06-09T16:59:31+02:00</time>
      </trkpt>
      <trkpt lat="45.37993" lon="4.50508">
        <ele>1025</ele>
        <time>2021-06-09T16:59:36+02:00</time>
      </trkpt>
      <trkpt lat="45.38058" lon="4.50542">
        <ele>1012</ele>
        <time>2021-06-09T16:59:41+02:00</time>
      </trkpt>
      <trkpt lat="45.38092" lon="4.50584">
        <ele>1010</ele>
        <time>2021-06-09T16:59:46+02:00</time>
      </trkpt>
      <trkpt lat="45.38028" lon="4.50637">
        <ele>1008</ele>
        <time>2021-06-09T16:59:51+02:00</time>
      </trkpt>
      <trkpt lat="45.37927" lon="4.50704">
        <ele>1017</ele>
        <time>2021-06-09T16:59:56+02:00</time>
      </trkpt>
      <trkpt lat="45.37888" lon="4.50769">
        <ele>1014</ele>
        <time>2021-06-09T17:00:01+02:00</time>
      </trkpt>
      <trkpt lat="45.37846" lon="4.50814">
        <ele>1022</ele>
        <time>2021-06-09T17:00:06+02:00</time>
      </trkpt>
      <trkpt lat="45.37827" lon="4.50848">
        <ele>1024</ele>
        <time>2021-06-09T17:00:11+02:00</time>
      </trkpt>
      <trkpt lat="45.37817" lon="4.50941">
        <ele>1017</ele>
        <time>2021-06-09T17:00:16+02:00</time>
      </trkpt>
      <trkpt lat="45.37802" lon="4.5102">
        <ele>1017</ele>
        <time>2021-06-09T17:00:21+02:00</time>
      </trkpt>
      <trkpt lat="45.37798" lon="4.51087">
        <ele>1016</ele>
        <time>2021-06-09T17:00:26+02:00</time>
      </trkpt>
      <trkpt lat="45.37807" lon="4.51112">
        <ele>1015</ele>
        <time>2021-06-09T17:00:31+02:00</time>
      </trkpt>
      <trkpt lat="45.37862" lon="4.51104">
        <ele>997</ele>
        <time>2021-06-09T17:00:36+02:00</time>
      </trkpt>
      <trkpt lat="45.37955" lon="4.51097">
        <ele>974</ele>
        <time>2021-06-09T17:00:41+02:00</time>
      </trkpt>
      <trkpt lat="45.37975" lon="4.51124">
        <ele>972</ele>
        <time>2021-06-09T17:00:46+02:00</time>
      </trkpt>
      <trkpt lat="45.37914" lon="4.51259">
        <ele>985</ele>
        <time>2021-06-09T17:00:51+02:00</time>
      </trkpt>
      <trkpt lat="45.37863" lon="4.51381">
        <ele>988</ele>
        <time>2021-06-09T17:00:56+02:00</time>
      </trkpt>
      <trkpt lat="45.37825" lon="4.51492">
        <ele>985</ele>
        <time>2021-06-09T17:01:01+02:00</time>
      </trkpt>
      <trkpt lat="45.37792" lon="4.51569">
        <ele>980</ele>
        <time>2021-06-09T17:01:06+02:00</time>
      </trkpt>
      <trkpt lat="45.37734" lon="4.51616">
        <ele>986</ele>
        <time>2021-06-09T17:01:11+02:00</time>
      </trkpt>
      <trkpt lat="45.37706" lon="4.51635">
        <ele>992</ele>
        <time>2021-06-09T17:01:16+02:00</time>
      </trkpt>
      <trkpt lat="45.37696" lon="4.51747">
        <ele>989</ele>
        <time>2021-06-09T17:01:21+02:00</time>
      </trkpt>
      <trkpt lat="45.37658" lon="4.51824">
        <ele>992</ele>
        <time>2021-06-09T17:01:26+02:00</time>
      </trkpt>
      <trkpt lat="45.37618" lon="4.51889">
        <ele>986</ele>
        <time>2021-06-09T17:01:31+02:00</time>
      </trkpt>
      <trkpt lat="45.37524" lon="4.51885">
        <ele>1002</ele>
        <time>2021-06-09T17:01:36+02:00</time>
      </trkpt>
      <trkpt lat="45.37491" lon="4.519">
        <ele>1005</ele>
        <time>2021-06-09T17:01:41+02:00</time>
      </trkpt>
      <trkpt lat="45.37505" lon="4.5194">
        <ele>998</ele>
        <time>2021-06-09T17:01:46+02:00</time>
      </trkpt>
      <trkpt lat="45.37532" lon="4.52003">
        <ele>987</ele>
        <time>2021-06-09T17:01:51+02:00</time>
      </trkpt>
      <trkpt lat="45.37497" lon="4.5206">
        <ele>993</ele>
        <time>2021-06-09T17:01:56+02:00</time>
      </trkpt>
      <trkpt lat="45.37453" lon="4.52111">
        <ele>1006</ele>
        <time>2021-06-09T17:02:01+02:00</time>
      </trkpt>
      <trkpt lat="45.37456" lon="4.52132">
        <ele>1007</ele>
        <time>2021-06-09T17:02:06+02:00</time>
      </trkpt>
      <trkpt lat="45.37481" lon="4.52163">
        <ele>1004</ele>
        <time>2021-06-09T17:02:11+02:00</time>
      </trkpt>
      <trkpt lat="45.37525" lon="4.5219">
        <ele>1003</ele>
        <time>2021-06-09T17:02:16+02:00</time>
      </trkpt>
      <trkpt lat="45.37572" lon="4.5222">
        <ele>1007</ele>
        <time>2021-06-09T17:02:21+02:00</time>
      </trkpt>
      <trkpt lat="45.37616" lon="4.52213">
        <ele>1003</ele>
        <time>2021-06-09T17:02:26+02:00</time>
      </trkpt>
      <trkpt lat="45.37699" lon="4.52231">
        <ele>1008</ele>
        <time>2021-06-09T17:02:31+02:00</time>
      </trkpt>
      <trkpt lat="45.37758" lon="4.52228">
        <ele>1005</ele>
        <time>2021-06-09T17:02:36+02:00</time>
      </trkpt>
      <trkpt lat="45.37789" lon="4.52219">
        <ele>999</ele>
        <time>2021-06-09T17:02:41+02:00</time>
      </trkpt>
      <trkpt lat="45.37825" lon="4.52258">
        <ele>1008</ele>
        <time>2021-06-09T17:02:46+02:00</time>
      </trkpt>
      <trkpt lat="45.37851" lon="4.52392">
        <ele>1019</ele>
        <time>2021-06-09T17:02:51+02:00</time>
      </trkpt>
      <trkpt lat="45.37862" lon="4.52443">
        <ele>1025</ele>
        <time>2021-06-09T17:02:56+02:00</time>
      </trkpt>
      <trkpt lat="45.37914" lon="4.52435">
        <ele>1019</ele>
        <time>2021-06-09T17:03:01+02:00</time>
      </trkpt>
      <trkpt lat="45.37957" lon="4.52379">
        <ele>1022</ele>
        <time>2021-06-09T17:03:06+02:00</time>
      </trkpt>
      <trkpt lat="45.38003" lon="4.52268">
        <ele>1021</ele>
        <time>2021-06-09T17:03:11+02:00</time>
      </trkpt>
      <trkpt lat="45.38018" lon="4.52223">
        <ele>1018</ele>
        <time>2021-06-09T17:03:16+02:00</time>
      </trkpt>
      <trkpt lat="45.38077" lon="4.52203">
        <ele>1027</ele>
        <time>2021-06-09T17:03:21+02:00</time>
      </trkpt>
      <trkpt lat="45.38118" lon="4.52194">
        <ele>1033</ele>
        <time>2021-06-09T17:03:26+02:00</time>
      </trkpt>
      <trkpt lat="45.38206" lon="4.52148">
        <ele>1040</ele>
        <time>2021-06-09T17:03:31+02:00</time>
      </trkpt>
      <trkpt lat="45.38307" lon="4.5207">
        <ele>1047</ele>
        <time>2021-06-09T17:03:36+02:00</time>
      </trkpt>
      <trkpt lat="45.38335" lon="4.52042">
        <ele>1049</ele>
        <time>2021-06-09T17:03:41+02:00</time>
      </trkpt>
      <trkpt lat="45.38355" lon="4.52015">
        <ele>1051</ele>
        <time>2021-06-09T17:03:46+02:00</time>
      </trkpt>
      <trkpt lat="45.38366" lon="4.52026">
        <ele>1057</ele>
        <time>2021-06-09T17:03:51+02:00</time>
      </trkpt>
      <trkpt lat="45.38326" lon="4.52101">
        <ele>1061</ele>
        <time>2021-06-09T17:03:56+02:00</time>
      </trkpt>
      <trkpt lat="45.38244" lon="4.52287">
        <ele>1086</ele>
        <time>2021-06-09T17:04:01+02:00</time>
      </trkpt>
      <trkpt lat="45.3815" lon="4.52505">
        <ele>1111</ele>
        <time>2021-06-09T17:04:06+02:00</time>
      </trkpt>
      <trkpt lat="45.38084" lon="4.52576">
        <ele>1104</ele>
        <time>2021-06-09T17:04:11+02:00</time>
      </trkpt>
      <trkpt lat="45.38062" lon="4.5265">
        <ele>1107</ele>
        <time>2021-06-09T17:04:16+02:00</time>
      </trkpt>
      <trkpt lat="45.3805" lon="4.52824">
        <ele>1110</ele>
        <time>2021-06-09T17:04:21+02:00</time>
      </trkpt>
      <trkpt lat="45.38043" lon="4.52857">
        <ele>1110</ele>
        <time>2021-06-09T17:04:26+02:00</time>
      </trkpt>
      <trkpt lat="45.38062" lon="4.52859">
        <ele>1108</ele>
        <time>2021-06-09T17:04:31+02:00</time>
      </trkpt>
      <trkpt lat="45.38065" lon="4.52898">
        <ele>1104</ele>
        <time>2021-06-09T17:04:36+02:00</time>
      </trkpt>
      <trkpt lat="45.38052" lon="4.52997">
        <ele>1108</ele>
        <time>2021-06-09T17:04:41+02:00</time>
      </trkpt>
      <trkpt lat="45.38069" lon="4.53092">
        <ele>1100</ele>
        <time>2021-06-09T17:04:46+02:00</time>
      </trkpt>
      <trkpt lat="45.38088" lon="4.53182">
        <ele>1089</ele>
        <time>2021-06-09T17:04:51+02:00</time>
      </trkpt>
      <trkpt lat="45.38104" lon="4.53222">
        <ele>1086</ele>
        <time>2021-06-09T17:04:56+02:00</time>
      </trkpt>
      <trkpt lat="45.38107" lon="4.53185">
        <ele>1082</ele>
        <time>2021-06-09T17:05:01+02:00</time>
      </trkpt>
      <trkpt lat="45.3811" lon="4.53145">
        <ele>1080</ele>
        <time>2021-06-09T17:05:06+02:00</time>
      </trkpt>
      <trkpt lat="45.38147" lon="4.53086">
        <ele>1067</ele>
        <time>2021-06-09T17:05:11+02:00</time>
      </trkpt>
      <trkpt lat="45.38173" lon="4.53044">
        <ele>1061</ele>
        <time>2021-06-09T17:05:16+02:00</time>
      </trkpt>
      <trkpt lat="45.38188" lon="4.53045">
        <ele>1057</ele>
        <time>2021-06-09T17:05:21+02:00</time>
      </trkpt>
      <trkpt lat="45.38187" lon="4.53074">
        <ele>1054</ele>
        <time>2021-06-09T17:05:26+02:00</time>
      </trkpt>
      <trkpt lat="45.38228" lon="4.53118">
        <ele>1039</ele>
        <time>2021-06-09T17:05:31+02:00</time>
      </trkpt>
      <trkpt lat="45.3826" lon="4.53155">
        <ele>1027</ele>
        <time>2021-06-09T17:05:36+02:00</time>
      </trkpt>
      <trkpt lat="45.38272" lon="4.53185">
        <ele>1022</ele>
        <time>2021-06-09T17:05:41+02:00</time>
      </trkpt>
      <trkpt lat="45.38303" lon="4.53276">
        <ele>1014</ele>
        <time>2021-06-09T17:05:46+02:00</time>
      </trkpt>
      <trkpt lat="45.38358" lon="4.53342">
        <ele>995</ele>
        <time>2021-06-09T17:05:51+02:00</time>
      </trkpt>
      <trkpt lat="45.38387" lon="4.53383">
        <ele>984</ele>
        <time>2021-06-09T17:05:56+02:00</time>
      </trkpt>
      <trkpt lat="45.38396" lon="4.53484">
        <ele>980</ele>
        <time>2021-06-09T17:06:01+02:00</time>
      </trkpt>
      <trkpt lat="45.38404" lon="4.53579">
        <ele>966</ele>
        <time>2021-06-09T17:06:06+02:00</time>
      </trkpt>
      <trkpt lat="45.38402" lon="4.53636">
        <ele>952</ele>
        <time>2021-06-09T17:06:11+02:00</time>
      </trkpt>
      <trkpt lat="45.38391" lon="4.53669">
        <ele>947</ele>
        <time>2021-06-09T17:06:16+02:00</time>
      </trkpt>
      <trkpt lat="45.38349" lon="4.53728">
        <ele>952</ele>
        <time>2021-06-09T17:06:21+02:00</time>
      </trkpt>
      <trkpt lat="45.38303" lon="4.53813">
        <ele>944</ele>
        <time>2021-06-09T17:06:26+02:00</time>
      </trkpt>
      <trkpt lat="45.38248" lon="4.5385">
        <ele>955</ele>
        <time>2021-06-09T17:06:31+02:00</time>
      </trkpt>
      <trkpt lat="45.38198" lon="4.53882">
        <ele>962</ele>
        <time>2021-06-09T17:06:36+02:00</time>
      </trkpt>
      <trkpt lat="45.38177" lon="4.53976">
        <ele>953</ele>
        <time>2021-06-09T17:06:41+02:00</time>
      </trkpt>
      <trkpt lat="45.38178" lon="4.54">
        <ele>951</ele>
        <time>2021-06-09T17:06:46+02:00</time>
      </trkpt>
      <trkpt lat="45.38236" lon="4.54002">
        <ele>951</ele>
        <time>2021-06-09T17:06:51+02:00</time>
      </trkpt>
      <trkpt lat="45.38306" lon="4.5397">
        <ele>946</ele>
        <time>2021-06-09T17:06:56+02:00</time>
      </trkpt>
      <trkpt lat="45.38395" lon="4.5394">
        <ele>935</ele>
        <time>2021-06-09T17:07:01+02:00</time>
      </trkpt>
      <trkpt lat="45.38455" lon="4.53942">
        <ele>933</ele>
        <time>2021-06-09T17:07:06+02:00</time>
      </trkpt>
      <trkpt lat="45.38511" lon="4.53951">
        <ele>929</ele>
        <time>2021-06-09T17:07:11+02:00</time>
      </trkpt>
      <trkpt lat="45.38596" lon="4.54017">
        <ele>921</ele>
        <time>2021-06-09T17:07:16+02:00</time>
      </trkpt>
      <trkpt lat="45.38645" lon="4.54059">
        <ele>908</ele>
        <time>2021-06-09T17:07:21+02:00</time>
      </trkpt>
      <trkpt lat="45.38656" lon="4.54148">
        <ele>899</ele>
        <time>2021-06-09T17:07:26+02:00</time>
      </trkpt>
      <trkpt lat="45.38656" lon="4.54176">
        <ele>897</ele>
        <time>2021-06-09T17:07:31+02:00</time>
      </trkpt>
      <trkpt lat="45.38691" lon="4.54239">
        <ele>887</ele>
        <time>2021-06-09T17:07:36+02:00</time>
      </trkpt>
      <trkpt lat="45.38699" lon="4.5426">
        <ele>885</ele>
        <time>2021-06-09T17:07:41+02:00</time>
      </trkpt>
      <trkpt lat="45.38707" lon="4.54315">
        <ele>888</ele>
        <time>2021-06-09T17:07:46+02:00</time>
      </trkpt>
      <trkpt lat="45.38765" lon="4.54413">
        <ele>883</ele>
        <time>2021-06-09T17:07:51+02:00</time>
      </trkpt>
      <trkpt lat="45.38795" lon="4.54487">
        <ele>875</ele>
        <time>2021-06-09T17:07:56+02:00</time>
      </trkpt>
      <trkpt lat="45.38783" lon="4.54536">
        <ele>874</ele>
        <time>2021-06-09T17:08:01+02:00</time>
      </trkpt>
      <trkpt lat="45.38756" lon="4.54602">
        <ele>879</ele>
        <time>2021-06-09T17:08:06+02:00</time>
      </trkpt>
      <trkpt lat="45.38754" lon="4.54661">
        <ele>878</ele>
        <time>2021-06-09T17:08:11+02:00</time>
      </trkpt>
      <trkpt lat="45.38767" lon="4.54753">
        <ele>880</ele>
        <time>2021-06-09T17:08:16+02:00</time>
      </trkpt>
      <trkpt lat="45.38788" lon="4.54779">
        <ele>887</ele>
        <time>2021-06-09T17:08:21+02:00</time>
      </trkpt>
      <trkpt lat="45.38877" lon="4.54701">
        <ele>869</ele>
        <time>2021-06-09T17:08:26+02:00</time>
      </trkpt>
      <trkpt lat="45.38936" lon="4.54675">
        <ele>865</ele>
        <time>2021-06-09T17:08:31+02:00</time>
      </trkpt>
      <trkpt lat="45.38996" lon="4.54709">
        <ele>871</ele>
        <time>2021-06-09T17:08:36+02:00</time>
      </trkpt>
      <trkpt lat="45.39027" lon="4.5477">
        <ele>876</ele>
        <time>2021-06-09T17:08:41+02:00</time>
      </trkpt>
      <trkpt lat="45.39058" lon="4.54812">
        <ele>877</ele>
        <time>2021-06-09T17:08:46+02:00</time>
      </trkpt>
      <trkpt lat="45.39155" lon="4.54856">
        <ele>873</ele>
        <time>2021-06-09T17:08:51+02:00</time>
      </trkpt>
      <trkpt lat="45.39245" lon="4.54898">
        <ele>860</ele>
        <time>2021-06-09T17:08:56+02:00</time>
      </trkpt>
      <trkpt lat="45.39324" lon="4.54922">
        <ele>848</ele>
        <time>2021-06-09T17:09:01+02:00</time>
      </trkpt>
      <trkpt lat="45.39394" lon="4.5493">
        <ele>833</ele>
        <time>2021-06-09T17:09:06+02:00</time>
      </trkpt>
      <trkpt lat="45.39424" lon="4.54952">
        <ele>828</ele>
        <time>2021-06-09T17:09:11+02:00</time>
      </trkpt>
      <trkpt lat="45.39455" lon="4.55027">
        <ele>823</ele>
        <time>2021-06-09T17:09:16+02:00</time>
      </trkpt>
      <trkpt lat="45.39443" lon="4.5508">
        <ele>820</ele>
        <time>2021-06-09T17:09:21+02:00</time>
      </trkpt>
      <trkpt lat="45.39415" lon="4.55125">
        <ele>821</ele>
        <time>2021-06-09T17:09:26+02:00</time>
      </trkpt>
      <trkpt lat="45.39367" lon="4.55156">
        <ele>826</ele>
        <time>2021-06-09T17:09:31+02:00</time>
      </trkpt>
      <trkpt lat="45.39319" lon="4.55199">
        <ele>835</ele>
        <time>2021-06-09T17:09:36+02:00</time>
      </trkpt>
      <trkpt lat="45.39309" lon="4.55234">
        <ele>837</ele>
        <time>2021-06-09T17:09:41+02:00</time>
      </trkpt>
      <trkpt lat="45.39339" lon="4.55253">
        <ele>835</ele>
        <time>2021-06-09T17:09:46+02:00</time>
      </trkpt>
      <trkpt lat="45.39364" lon="4.55245">
        <ele>834</ele>
        <time>2021-06-09T17:09:51+02:00</time>
      </trkpt>
      <trkpt lat="45.39432" lon="4.55252">
        <ele>836</ele>
        <time>2021-06-09T17:09:56+02:00</time>
      </trkpt>
      <trkpt lat="45.39504" lon="4.55266">
        <ele>839</ele>
        <time>2021-06-09T17:10:01+02:00</time>
      </trkpt>
      <trkpt lat="45.39543" lon="4.55285">
        <ele>842</ele>
        <time>2021-06-09T17:10:06+02:00</time>
      </trkpt>
      <trkpt lat="45.39562" lon="4.55323">
        <ele>852</ele>
        <time>2021-06-09T17:10:11+02:00</time>
      </trkpt>
      <trkpt lat="45.39564" lon="4.55346">
        <ele>859</ele>
        <time>2021-06-09T17:10:16+02:00</time>
      </trkpt>
      <trkpt lat="45.39528" lon="4.55355">
        <ele>866</ele>
        <time>2021-06-09T17:10:21+02:00</time>
      </trkpt>
      <trkpt lat="45.39541" lon="4.55413">
        <ele>882</ele>
        <time>2021-06-09T17:10:26+02:00</time>
      </trkpt>
      <trkpt lat="45.39565" lon="4.55449">
        <ele>890</ele>
        <time>2021-06-09T17:10:31+02:00</time>
      </trkpt>
      <trkpt lat="45.39608" lon="4.55537">
        <ele>905</ele>
        <time>2021-06-09T17:10:36+02:00</time>
      </trkpt>
      <trkpt lat="45.39548" lon="4.55532">
        <ele>915</ele>
        <time>2021-06-09T17:10:41+02:00</time>
      </trkpt>
      <trkpt lat="45.39511" lon="4.5556">
        <ele>928</ele>
        <time>2021-06-09T17:10:46+02:00</time>
      </trkpt>
      <trkpt lat="45.39475" lon="4.55561">
        <ele>933</ele>
        <time>2021-06-09T17:10:51+02:00</time>
      </trkpt>
      <trkpt lat="45.39519" lon="4.5561">
        <ele>944</ele>
        <time>2021-06-09T17:10:56+02:00</time>
      </trkpt>
      <trkpt lat="45.39551" lon="4.55636">
        <ele>948</ele>
        <time>2021-06-09T17:11:01+02:00</time>
      </trkpt>
      <trkpt lat="45.3956" lon="4.55693">
        <ele>966</ele>
        <time>2021-06-09T17:11:06+02:00</time>
      </trkpt>
      <trkpt lat="45.39579" lon="4.55721">
        <ele>973</ele>
        <time>2021-06-09T17:11:11+02:00</time>
      </trkpt>
      <trkpt lat="45.39629" lon="4.55764">
        <ele>972</ele>
        <time>2021-06-09T17:11:16+02:00</time>
      </trkpt>
      <trkpt lat="45.3965" lon="4.55849">
        <ele>979</ele>
        <time>2021-06-09T17:11:21+02:00</time>
      </trkpt>
      <trkpt lat="45.39654" lon="4.55947">
        <ele>984</ele>
        <time>2021-06-09T17:11:26+02:00</time>
      </trkpt>
      <trkpt lat="45.39622" lon="4.55957">
        <ele>1003</ele>
        <time>2021-06-09T17:11:31+02:00</time>
      </trkpt>
      <trkpt lat="45.39562" lon="4.55978">
        <ele>1037</ele>
        <time>2021-06-09T17:11:36+02:00</time>
      </trkpt>
      <trkpt lat="45.39498" lon="4.56029">
        <ele>1072</ele>
        <time>2021-06-09T17:11:41+02:00</time>
      </trkpt>
      <trkpt lat="45.39466" lon="4.56108">
        <ele>1098</ele>
        <time>2021-06-09T17:11:46+02:00</time>
      </trkpt>
      <trkpt lat="45.39458" lon="4.56161">
        <ele>1113</ele>
        <time>2021-06-09T17:11:51+02:00</time>
      </trkpt>
      <trkpt lat="45.39427" lon="4.56214">
        <ele>1137</ele>
        <time>2021-06-09T17:11:56+02:00</time>
      </trkpt>
      <trkpt lat="45.39424" lon="4.56288">
        <ele>1156</ele>
        <time>2021-06-09T17:12:01+02:00</time>
      </trkpt>
      <trkpt lat="45.39399" lon="4.56337">
        <ele>1170</ele>
        <time>2021-06-09T17:12:06+02:00</time>
      </trkpt>
      <trkpt lat="45.39399" lon="4.56368">
        <ele>1173</ele>
        <time>2021-06-09T17:12:11+02:00</time>
      </trkpt>
      <trkpt lat="45.39363" lon="4.56415">
        <ele>1188</ele>
        <time>2021-06-09T17:12:16+02:00</time>
      </trkpt>
      <trkpt lat="45.39334" lon="4.56494">
        <ele>1210</ele>
        <time>2021-06-09T17:12:21+02:00</time>
      </trkpt>
      <trkpt lat="45.39292" lon="4.56582">
        <ele>1227</ele>
        <time>2021-06-09T17:12:26+02:00</time>
      </trkpt>
      <trkpt lat="45.39231" lon="4.56614">
        <ele>1243</ele>
        <time>2021-06-09T17:12:31+02:00</time>
      </trkpt>
      <trkpt lat="45.39168" lon="4.56637">
        <ele>1259</ele>
        <time>2021-06-09T17:12:36+02:00</time>
      </trkpt>
      <trkpt lat="45.39131" lon="4.56694">
        <ele>1266</ele>
        <time>2021-06-09T17:12:41+02:00</time>
      </trkpt>
      <trkpt lat="45.39087" lon="4.56716">
        <ele>1273</ele>
        <time>2021-06-09T17:12:46+02:00</time>
      </trkpt>
      <trkpt lat="45.39057" lon="4.56762">
        <ele>1279</ele>
        <time>2021-06-09T17:12:51+02:00</time>
      </trkpt>
      <trkpt lat="45.39033" lon="4.56797">
        <ele>1283</ele>
        <time>2021-06-09T17:12:56+02:00</time>
      </trkpt>
      <trkpt lat="45.39017" lon="4.56889">
        <ele>1292</ele>
        <time>2021-06-09T17:13:01+02:00</time>
      </trkpt>
      <trkpt lat="45.39002" lon="4.56972">
        <ele>1300</ele>
        <time>2021-06-09T17:13:06+02:00</time>
      </trkpt>
      <trkpt lat="45.39006" lon="4.57061">
        <ele>1305</ele>
        <time>2021-06-09T17:13:11+02:00</time>
      </trkpt>
      <trkpt lat="45.39003" lon="4.57123">
        <ele>1308</ele>
        <time>2021-06-09T17:13:16+02:00</time>
      </trkpt>
      <trkpt lat="45.38995" lon="4.57187">
        <ele>1309</ele>
        <time>2021-06-09T17:13:21+02:00</time>
      </trkpt>
      <trkpt lat="45.38999" lon="4.57253">
        <ele>1305</ele>
        <time>2021-06-09T17:13:26+02:00</time>
      </trkpt>
      <trkpt lat="45.38992" lon="4.5731">
        <ele>1303</ele>
        <time>2021-06-09T17:13:31+02:00</time>
      </trkpt>
      <trkpt lat="45.38995" lon="4.57336">
        <ele>1301</ele>
        <time>2021-06-09T17:13:36+02:00</time>
      </trkpt>
      <trkpt lat="45.39032" lon="4.57363">
        <ele>1304</ele>
        <time>2021-06-09T17:13:41+02:00</time>
      </trkpt>
      <trkpt lat="45.39032" lon="4.57406">
        <ele>1309</ele>
        <time>2021-06-09T17:13:46+02:00</time>
      </trkpt>
      <trkpt lat="45.38985" lon="4.57415">
        <ele>1309</ele>
        <time>2021-06-09T17:13:51+02:00</time>
      </trkpt>
      <trkpt lat="45.38955" lon="4.57407">
        <ele>1309</ele>
        <time>2021-06-09T17:13:56+02:00</time>
      </trkpt>
      <trkpt lat="45.38916" lon="4.57434">
        <ele>1312</ele>
        <time>2021-06-09T17:14:01+02:00</time>
      </trkpt>
      <trkpt lat="45.3884" lon="4.5746">
        <ele>1323</ele>
        <time>2021-06-09T17:14:06+02:00</time>
      </trkpt>
      <trkpt lat="45.38774" lon="4.57466">
        <ele>1332</ele>
        <time>2021-06-09T17:14:11+02:00</time>
      </trkpt>
      <trkpt lat="45.3866" lon="4.57528">
        <ele>1353</ele>
        <time>2021-06-09T17:14:16+02:00</time>
      </trkpt>
      <trkpt lat="45.38633" lon="4.57562">
        <ele>1359</ele>
        <time>2021-06-09T17:14:21+02:00</time>
      </trkpt>
      <trkpt lat="45.38557" lon="4.57584">
        <ele>1370</ele>
        <time>2021-06-09T17:14:26+02:00</time>
      </trkpt>
      <trkpt lat="45.3852" lon="4.57607">
        <ele>1376</ele>
        <time>2021-06-09T17:14:31+02:00</time>
      </trkpt>
      <trkpt lat="45.38437" lon="4.57612">
        <ele>1389</ele>
        <time>2021-06-09T17:14:36+02:00</time>
      </trkpt>
      <trkpt lat="45.38302" lon="4.57628">
        <ele>1398</ele>
        <time>2021-06-09T17:14:41+02:00</time>
      </trkpt>
      <trkpt lat="45.38284" lon="4.57635">
        <ele>1398</ele>
        <time>2021-06-09T17:14:46+02:00</time>
      </trkpt>
      <trkpt lat="45.38265" lon="4.575">
        <ele>1403</ele>
        <time>2021-06-09T17:14:51+02:00</time>
      </trkpt>
      <trkpt lat="45.38259" lon="4.5738">
        <ele>1414</ele>
        <time>2021-06-09T17:14:56+02:00</time>
      </trkpt>
      <trkpt lat="45.38251" lon="4.57353">
        <ele>1418</ele>
        <time>2021-06-09T17:15:01+02:00</time>
      </trkpt>
      <trkpt lat="45.38252" lon="4.57283">
        <ele>1421</ele>
        <time>2021-06-09T17:15:06+02:00</time>
      </trkpt>
      <trkpt lat="45.38238" lon="4.57228">
        <ele>1420</ele>
        <time>2021-06-09T17:15:11+02:00</time>
      </trkpt>
      <trkpt lat="45.38227" lon="4.57159">
        <ele>1415</ele>
        <time>2021-06-09T17:15:16+02:00</time>
      </trkpt>
      <trkpt lat="45.38223" lon="4.57138">
        <ele>1413</ele>
        <time>2021-06-09T17:15:21+02:00</time>
      </trkpt>
      <trkpt lat="45.38146" lon="4.57">
        <ele>1399</ele>
        <time>2021-06-09T17:15:26+02:00</time>
      </trkpt>
      <trkpt lat="45.38088" lon="4.56898">
        <ele>1390</ele>
        <time>2021-06-09T17:15:31+02:00</time>
      </trkpt>
      <trkpt lat="45.38055" lon="4.56834">
        <ele>1384</ele>
        <time>2021-06-09T17:15:36+02:00</time>
      </trkpt>
      <trkpt lat="45.3804" lon="4.56795">
        <ele>1381</ele>
        <time>2021-06-09T17:15:41+02:00</time>
      </trkpt>
      <trkpt lat="45.38013" lon="4.5676">
        <ele>1379</ele>
        <time>2021-06-09T17:15:46+02:00</time>
      </trkpt>
      <trkpt lat="45.37932" lon="4.56744">
        <ele>1375</ele>
        <time>2021-06-09T17:15:51+02:00</time>
      </trkpt>
      <trkpt lat="45.37843" lon="4.56681">
        <ele>1368</ele>
        <time>2021-06-09T17:15:56+02:00</time>
      </trkpt>
      <trkpt lat="45.3776" lon="4.56577">
        <ele>1358</ele>
        <time>2021-06-09T17:16:01+02:00</time>
      </trkpt>
      <trkpt lat="45.37703" lon="4.56507">
        <ele>1349</ele>
        <time>2021-06-09T17:16:06+02:00</time>
      </trkpt>
      <trkpt lat="45.37633" lon="4.56414">
        <ele>1337</ele>
        <time>2021-06-09T17:16:11+02:00</time>
      </trkpt>
      <trkpt lat="45.37525" lon="4.56376">
        <ele>1329</ele>
        <time>2021-06-09T17:16:16+02:00</time>
      </trkpt>
      <trkpt lat="45.37437" lon="4.56304">
        <ele>1314</ele>
        <time>2021-06-09T17:16:21+02:00</time>
      </trkpt>
      <trkpt lat="45.37398" lon="4.56275">
        <ele>1308</ele>
        <time>2021-06-09T17:16:26+02:00</time>
      </trkpt>
      <trkpt lat="45.37331" lon="4.56193">
        <ele>1300</ele>
        <time>2021-06-09T17:16:31+02:00</time>
      </trkpt>
      <trkpt lat="45.37313" lon="4.56185">
        <ele>1300</ele>
        <time>2021-06-09T17:16:36+02:00</time>
      </trkpt>
      <trkpt lat="45.37285" lon="4.56143">
        <ele>1300</ele>
        <time>2021-06-09T17:16:41+02:00</time>
      </trkpt>
      <trkpt lat="45.37238" lon="4.56064">
        <ele>1305</ele>
        <time>2021-06-09T17:16:46+02:00</time>
      </trkpt>
      <trkpt lat="45.37223" lon="4.56002">
        <ele>1306</ele>
        <time>2021-06-09T17:16:51+02:00</time>
      </trkpt>
      <trkpt lat="45.37214" lon="4.55935">
        <ele>1305</ele>
        <time>2021-06-09T17:16:56+02:00</time>
      </trkpt>
      <trkpt lat="45.37195" lon="4.55818">
        <ele>1297</ele>
        <time>2021-06-09T17:17:01+02:00</time>
      </trkpt>
      <trkpt lat="45.37128" lon="4.55688">
        <ele>1299</ele>
        <time>2021-06-09T17:17:06+02:00</time>
      </trkpt>
      <trkpt lat="45.37112" lon="4.55553">
        <ele>1301</ele>
        <time>2021-06-09T17:17:11+02:00</time>
      </trkpt>
      <trkpt lat="45.37147" lon="4.55415">
        <ele>1296</ele>
        <time>2021-06-09T17:17:16+02:00</time>
      </trkpt>
      <trkpt lat="45.37156" lon="4.5539">
        <ele>1294</ele>
        <time>2021-06-09T17:17:21+02:00</time>
      </trkpt>
      <trkpt lat="45.37153" lon="4.55259">
        <ele>1293</ele>
        <time>2021-06-09T17:17:26+02:00</time>
      </trkpt>
      <trkpt lat="45.37187" lon="4.55075">
        <ele>1289</ele>
        <time>2021-06-09T17:17:31+02:00</time>
      </trkpt>
      <trkpt lat="45.37224" lon="4.54903">
        <ele>1284</ele>
        <time>2021-06-09T17:17:36+02:00</time>
      </trkpt>
      <trkpt lat="45.37184" lon="4.54789">
        <ele>1282</ele>
        <time>2021-06-09T17:17:41+02:00</time>
      </trkpt>
      <trkpt lat="45.37095" lon="4.54612">
        <ele>1259</ele>
        <time>2021-06-09T17:17:46+02:00</time>
      </trkpt>
      <trkpt lat="45.37041" lon="4.54529">
        <ele>1247</ele>
        <time>2021-06-09T17:17:51+02:00</time>
      </trkpt>
      <trkpt lat="45.37017" lon="4.54431">
        <ele>1232</ele>
        <time>2021-06-09T17:17:56+02:00</time>
      </trkpt>
      <trkpt lat="45.3701" lon="4.54318">
        <ele>1223</ele>
        <time>2021-06-09T17:18:01+02:00</time>
      </trkpt>
      <trkpt lat="45.36997" lon="4.54194">
        <ele>1224</ele>
        <time>2021-06-09T17:18:06+02:00</time>
      </trkpt>
      <trkpt lat="45.36987" lon="4.54062">
        <ele>1227</ele>
        <time>2021-06-09T17:18:11+02:00</time>
      </trkpt>
      <trkpt lat="45.37006" lon="4.53992">
        <ele>1230</ele>
        <time>2021-06-09T17:18:16+02:00</time>
      </trkpt>
      <trkpt lat="45.36998" lon="4.53875">
        <ele>1240</ele>
        <time>2021-06-09T17:18:21+02:00</time>
      </trkpt>
      <trkpt lat="45.36992" lon="4.53772">
        <ele>1244</ele>
        <time>2021-06-09T17:18:26+02:00</time>
      </trkpt>
      <trkpt lat="45.37005" lon="4.5368">
        <ele>1245</ele>
        <time>2021-06-09T17:18:31+02:00</time>
      </trkpt>
      <trkpt lat="45.37018" lon="4.53588">
        <ele>1247</ele>
        <time>2021-06-09T17:18:36+02:00</time>
      </trkpt>
      <trkpt lat="45.37021" lon="4.535">
        <ele>1248</ele>
        <time>2021-06-09T17:18:41+02:00</time>
      </trkpt>
      <trkpt lat="45.37" lon="4.53449">
        <ele>1250</ele>
        <time>2021-06-09T17:18:46+02:00</time>
      </trkpt>
      <trkpt lat="45.36961" lon="4.53332">
        <ele>1247</ele>
        <time>2021-06-09T17:18:51+02:00</time>
      </trkpt>
      <trkpt lat="45.36933" lon="4.53262">
        <ele>1239</ele>
        <time>2021-06-09T17:18:56+02:00</time>
      </trkpt>
      <trkpt lat="45.36921" lon="4.53171">
        <ele>1236</ele>
        <time>2021-06-09T17:19:01+02:00</time>
      </trkpt>
      <trkpt lat="45.36904" lon="4.53075">
        <ele>1226</ele>
        <time>2021-06-09T17:19:06+02:00</time>
      </trkpt>
      <trkpt lat="45.36907" lon="4.53046">
        <ele>1223</ele>
        <time>2021-06-09T17:19:11+02:00</time>
      </trkpt>
      <trkpt lat="45.36881" lon="4.52989">
        <ele>1215</ele>
        <time>2021-06-09T17:19:16+02:00</time>
      </trkpt>
      <trkpt lat="45.36854" lon="4.52867">
        <ele>1205</ele>
        <time>2021-06-09T17:19:21+02:00</time>
      </trkpt>
      <trkpt lat="45.36854" lon="4.5284">
        <ele>1204</ele>
        <time>2021-06-09T17:19:26+02:00</time>
      </trkpt>
      <trkpt lat="45.36834" lon="4.52821">
        <ele>1204</ele>
        <time>2021-06-09T17:19:31+02:00</time>
      </trkpt>
      <trkpt lat="45.36794" lon="4.52819">
        <ele>1205</ele>
        <time>2021-06-09T17:19:36+02:00</time>
      </trkpt>
      <trkpt lat="45.36801" lon="4.52796">
        <ele>1205</ele>
        <time>2021-06-09T17:19:41+02:00</time>
      </trkpt>
      <trkpt lat="45.36775" lon="4.52792">
        <ele>1207</ele>
        <time>2021-06-09T17:19:46+02:00</time>
      </trkpt>
      <trkpt lat="45.368" lon="4.52722">
        <ele>1207</ele>
        <time>2021-06-09T17:19:51+02:00</time>
      </trkpt>
      <trkpt lat="45.3682" lon="4.52651">
        <ele>1205</ele>
        <time>2021-06-09T17:19:56+02:00</time>
      </trkpt>
      <trkpt lat="45.36813" lon="4.52635">
        <ele>1206</ele>
        <time>2021-06-09T17:20:01+02:00</time>
      </trkpt>
      <trkpt lat="45.36808" lon="4.52611">
        <ele>1207</ele>
        <time>2021-06-09T17:20:06+02:00</time>
      </trkpt>
      <trkpt lat="45.36816" lon="4.52582">
        <ele>1206</ele>
        <time>2021-06-09T17:20:11+02:00</time>
      </trkpt>
      <trkpt lat="45.36809" lon="4.52363">
        <ele>1205</ele>
        <time>2021-06-09T17:20:16+02:00</time>
      </trkpt>
      <trkpt lat="45.36813" lon="4.52312">
        <ele>1204</ele>
        <time>2021-06-09T17:20:21+02:00</time>
      </trkpt>
      <trkpt lat="45.36808" lon="4.52187">
        <ele>1199</ele>
        <time>2021-06-09T17:20:26+02:00</time>
      </trkpt>
      <trkpt lat="45.36794" lon="4.5214">
        <ele>1199</ele>
        <time>2021-06-09T17:20:31+02:00</time>
      </trkpt>
      <trkpt lat="45.36785" lon="4.52077">
        <ele>1197</ele>
        <time>2021-06-09T17:20:36+02:00</time>
      </trkpt>
      <trkpt lat="45.36782" lon="4.52047">
        <ele>1196</ele>
        <time>2021-06-09T17:20:41+02:00</time>
      </trkpt>
      <trkpt lat="45.36769" lon="4.51993">
        <ele>1194</ele>
        <time>2021-06-09T17:20:46+02:00</time>
      </trkpt>
      <trkpt lat="45.36771" lon="4.51951">
        <ele>1190</ele>
        <time>2021-06-09T17:20:51+02:00</time>
      </trkpt>
      <trkpt lat="45.36776" lon="4.51911">
        <ele>1187</ele>
        <time>2021-06-09T17:20:56+02:00</time>
      </trkpt>
      <trkpt lat="45.36777" lon="4.5186">
        <ele>1185</ele>
        <time>2021-06-09T17:21:01+02:00</time>
      </trkpt>
      <trkpt lat="45.36807" lon="4.51747">
        <ele>1179</ele>
        <time>2021-06-09T17:21:06+02:00</time>
      </trkpt>
      <trkpt lat="45.3683" lon="4.5168">
        <ele>1176</ele>
        <time>2021-06-09T17:21:11+02:00</time>
      </trkpt>
      <trkpt lat="45.3685" lon="4.51643">
        <ele>1174</ele>
        <time>2021-06-09T17:21:16+02:00</time>
      </trkpt>
      <trkpt lat="45.36877" lon="4.51602">
        <ele>1174</ele>
        <time>2021-06-09T17:21:21+02:00</time>
      </trkpt>
      <trkpt lat="45.3691" lon="4.5153">
        <ele>1176</ele>
        <time>2021-06-09T17:21:26+02:00</time>
      </trkpt>
      <trkpt lat="45.36937" lon="4.51432">
        <ele>1175</ele>
        <time>2021-06-09T17:21:31+02:00</time>
      </trkpt>
      <trkpt lat="45.36975" lon="4.51363">
        <ele>1171</ele>
        <time>2021-06-09T17:21:36+02:00</time>
      </trkpt>
      <trkpt lat="45.37016" lon="4.51323">
        <ele>1168</ele>
        <time>2021-06-09T17:21:41+02:00</time>
      </trkpt>
      <trkpt lat="45.37055" lon="4.51286">
        <ele>1165</ele>
        <time>2021-06-09T17:21:46+02:00</time>
      </trkpt>
      <trkpt lat="45.3708" lon="4.51278">
        <ele>1165</ele>
        <time>2021-06-09T17:21:51+02:00</time>
      </trkpt>
      <trkpt lat="45.37123" lon="4.51222">
        <ele>1168</ele>
        <time>2021-06-09T17:21:56+02:00</time>
      </trkpt>
      <trkpt lat="45.37168" lon="4.51143">
        <ele>1172</ele>
        <time>2021-06-09T17:22:01+02:00</time>
      </trkpt>
      <trkpt lat="45.3719" lon="4.51043">
        <ele>1176</ele>
        <time>2021-06-09T17:22:06+02:00</time>
      </trkpt>
      <trkpt lat="45.37201" lon="4.50925">
        <ele>1182</ele>
        <time>2021-06-09T17:22:11+02:00</time>
      </trkpt>
      <trkpt lat="45.37195" lon="4.50768">
        <ele>1185</ele>
        <time>2021-06-09T17:22:16+02:00</time>
      </trkpt>
      <trkpt lat="45.37223" lon="4.50635">
        <ele>1180</ele>
        <time>2021-06-09T17:22:21+02:00</time>
      </trkpt>
      <trkpt lat="45.37269" lon="4.50529">
        <ele>1172</ele>
        <time>2021-06-09T17:22:26+02:00</time>
      </trkpt>
      <trkpt lat="45.3734" lon="4.50413">
        <ele>1167</ele>
        <time>2021-06-09T17:22:31+02:00</time>
      </trkpt>
      <trkpt lat="45.37373" lon="4.50354">
        <ele>1166</ele>
        <time>2021-06-09T17:22:36+02:00</time>
      </trkpt>
      <trkpt lat="45.37375" lon="4.50314">
        <ele>1164</ele>
        <time>2021-06-09T17:22:41+02:00</time>
      </trkpt>
      <trkpt lat="45.37407" lon="4.5031">
        <ele>1167</ele>
        <time>2021-06-09T17:22:46+02:00</time>
      </trkpt>
      <trkpt lat="45.37469" lon="4.50207">
        <ele>1162</ele>
        <time>2021-06-09T17:22:51+02:00</time>
      </trkpt>
      <trkpt lat="45.37569" lon="4.50037">
        <ele>1157</ele>
        <time>2021-06-09T17:22:56+02:00</time>
      </trkpt>
      <trkpt lat="45.37636" lon="4.49924">
        <ele>1153</ele>
        <time>2021-06-09T17:23:01+02:00</time>
      </trkpt>
      <trkpt lat="45.37652" lon="4.49824">
        <ele>1147</ele>
        <time>2021-06-09T17:23:06+02:00</time>
      </trkpt>
      <trkpt lat="45.37679" lon="4.49704">
        <ele>1140</ele>
        <time>2021-06-09T17:23:11+02:00</time>
      </trkpt>
      <trkpt lat="45.37719" lon="4.49595">
        <ele>1135</ele>
        <time>2021-06-09T17:23:16+02:00</time>
      </trkpt>
      <trkpt lat="45.37857" lon="4.49401">
        <ele>1125</ele>
        <time>2021-06-09T17:23:21+02:00</time>
      </trkpt>
      <trkpt lat="45.37932" lon="4.49274">
        <ele>1114</ele>
        <time>2021-06-09T17:23:26+02:00</time>
      </trkpt>
      <trkpt lat="45.38022" lon="4.49193">
        <ele>1105</ele>
        <time>2021-06-09T17:23:31+02:00</time>
      </trkpt>
      <trkpt lat="45.38118" lon="4.49126">
        <ele>1100</ele>
        <time>2021-06-09T17:23:36+02:00</time>
      </trkpt>
      <trkpt lat="45.38138" lon="4.49141">
        <ele>1099</ele>
        <time>2021-06-09T17:23:41+02:00</time>
      </trkpt>
      <trkpt lat="45.38245" lon="4.49054">
        <ele>1091</ele>
        <time>2021-06-09T17:23:46+02:00</time>
      </trkpt>
      <trkpt lat="45.38356" lon="4.48957">
        <ele>1088</ele>
        <time>2021-06-09T17:23:51+02:00</time>
      </trkpt>
      <trkpt lat="45.38438" lon="4.48851">
        <ele>1087</ele>
        <time>2021-06-09T17:23:56+02:00</time>
      </trkpt>
      <trkpt lat="45.38492" lon="4.48754">
        <ele>1087</ele>
        <time>2021-06-09T17:24:01+02:00</time>
      </trkpt>
      <trkpt lat="45.38576" lon="4.48621">
        <ele>1093</ele>
        <time>2021-06-09T17:24:06+02:00</time>
      </trkpt>
      <trkpt lat="45.38688" lon="4.48496">
        <ele>1069</ele>
        <time>2021-06-09T17:24:11+02:00</time>
      </trkpt>
      <trkpt lat="45.38826" lon="4.48379">
        <ele>1044</ele>
        <time>2021-06-09T17:24:16+02:00</time>
      </trkpt>
      <trkpt lat="45.38847" lon="4.48389">
        <ele>1043</ele>
        <time>2021-06-09T17:24:21+02:00</time>
      </trkpt>
      <trkpt lat="45.38931" lon="4.48294">
        <ele>1037</ele>
        <time>2021-06-09T17:24:26+02:00</time>
      </trkpt>
      <trkpt lat="45.39047" lon="4.48134">
        <ele>1041</ele>
        <time>2021-06-09T17:24:31+02:00</time>
      </trkpt>
      <trkpt lat="45.39088" lon="4.4809">
        <ele>1045</ele>
        <time>2021-06-09T17:24:36+02:00</time>
      </trkpt>
      <trkpt lat="45.39088" lon="4.4809">
        <ele>1045</ele>
        <time>2021-06-09T17:24:41+02:00</time>
      </trkpt>
    </trkseg>
  </trk>
</gpx>